Regional Weather Roundup
Issued by NWS Grand Forks, ND

Home | Current Version | Previous Version | Text Only | Print | Product List | Glossary Off
Versions: 1 2 3 4 5 6 7 8 9 10 11 12 13 14 15 16 17 18 19 20 21 22 23 24 25 26 27 28 29 30 31 32 33 34 35 36 37 38 39 40 41 42 43 44 45 46 47 48 49 50

000
ASUS43 KFGF 220710
RWRFGF
PRAIRIE TO PINES  WEATHER ROUNDUP
NATIONAL WEATHER SERVICE EASTERN NORTH DAKOTA/GRAND FORKS ND
100 AM CST MON JAN 22 2018

 **SATELLITE DATA USED TO AUGMENT SKY COVER AT AUTOMATED STATIONS**
 *****  WEATHER ACROSS EASTERN NORTH DAKOTA  *****

CITY           SKY/WX    TMP DP  RH WIND       PRES   REMARKS
GRAND FORKS    CLOUDY    23  21  92 N3        30.10F
GRAND FRKS AFB CLOUDY    22  20  91 N5        30.10F WCI  16
DEVILS LAKE    NOT AVBL
FARGO          CLOUDY    26  23  88 NE10      30.05F WCI  16
WAHPETON ARPT  CLOUDY    27  23  86 N10       30.01F WCI  17
$$

 ***** WEATHER ACROSS CENTRAL AND WESTERN NORTH DAKOTA  *****

CITY           SKY/WX    TMP DP  RH WIND       PRES   REMARKS
BISMARCK       FOG       16  15  96 CALM      30.04F VSB 1/4
MINOT          FAIR      15  12  88 CALM      30.00F
JAMESTOWN      CLOUDY    25  22  88 NE3       30.03F
MINOT AFB      FAIR       9   6  87 W5        30.00S WCI   0
GARRISON         N/A      6   2  83 N6        30.00F WCI  -4
WILLISTON      FAIR      11   9  92 CALM      30.01F
DICKINSON      FAIR      17  13  84 W8        29.96F WCI   7
HETTINGER      FAIR      14  11  87 W7        30.00F WCI   4
$$

 *****  OTHER AIRPORT OBSERVATIONS IN OUR AREA  *****

CITY           SKY/WX    TMP DP  RH WIND       PRES   REMARKS
WALHALLA       FAIR      21  21 100 CALM      30.12S
GRAFTON AIRPOR NOT AVBL
VALLEY CITY AR NOT AVBL
CANDO          FOG       21  21 100 CALM      30.09S VSB 1/2
CAVALIER APRT    N/A     21  21 100 CALM      30.12F
GWINNER          N/A     23  23 100 N16       30.02F WCI  10
SHEYENNE NWR     N/A     24  24 100 NE10      29.95S WCI  14
ROLLA          FOG       19  19 100 MISG      30.05S VSB 1/2
 ***** THE ABOVE OBSERVATIONS ARE NON NWS ARE NOT QUALITY
       CONTROLLED AND MAY MIS-REPORT RAIN FOR SNOW...
$$

  *****  WEATHER ACROSS NORTHERN MINNESOTA  *****

CITY           SKY/WX    TMP DP  RH WIND       PRES   REMARKS
FLAG ISLAND    CLOUDY    21  19  93 NE5       30.11S FOG     WCI  15
WARROAD        CLOUDY    25  19  80 N3        30.11S
ROSEAU         CLOUDY    25  19  80 N5        30.10F WCI  19
HALLOCK        CLOUDY    21  19  93 NE3       30.12S
THF RVR FALLS  CLOUDY    23  21  92 E7        30.09F WCI  15
BAUDETTE       CLOUDY    25  24  96 NE5       30.08F WCI  19
WASKISH        CLOUDY    27  25  93 CALM      30.06F
CROOKSTON      CLOUDY    25  23  93 NE3       30.10F
STEPHEN NDAWN    N/A     21  19  93 N6          N/A  WCI  14
GREENBUSH NDAW   N/A     21  19  93 N2          N/A
$$
  *****  WEATHER ACROSS CENTRAL AND WEST MINNESOTA  *****

CITY           SKY/WX    TMP DP  RH WIND       PRES   REMARKS
FOSSTON        CLOUDY    23  21  93 NE6       30.05F WCI  16
BEMIDJI        CLOUDY    24  24  97 N5        30.03F WCI  19
PARK RAPIDS    CLOUDY    25  22  88 VRB6      29.99F FOG     WCI  18
ELBOW LAKE     CLOUDY    25  24  97 E12       29.99S WCI  14
WADENA         CLOUDY    23  23 100 NE13      29.98F FOG     WCI  11
DETROIT LAKES  CLOUDY    27  27 100 NE8       30.01F WCI  18
MOORHEAD       CLOUDY    25  21  86 N12       30.05F WCI  14
FERGUS FALLS   CLOUDY    25  25 100 NE10      30.00F WCI  15
MORRIS MN      CLOUDY    27  25  93 N14       29.96F FOG     WCI  15
STAPLES        CLOUDY    25  25 100 NE7       29.98F FOG     WCI  17
$$
  *****  WEATHER ELSEWHERE ACROSS MINNESOTA  *****

CITY           SKY/WX    TMP DP  RH WIND       PRES   REMARKS
DULUTH         LGT SNOW  27  26  96 E20G28    30.00F VSB 1   WCI  13
INTRNTL FALLS  CLOUDY    22  20  92 NE7       30.08F WCI  13
ELY            NOT AVBL
CLOQUET        LGT SNOW  28  27  93 E12G23    29.99F WCI  18
WHEATON        CLOUDY    25  23  93 N10       30.03F WCI  15
BRAINERD       CLOUDY    27  25  92 NE12      29.98F FOG     WCI  17
HIBBING        CLOUDY    26  24  92 NE5       30.03F WCI  20
ALEXANDRIA     CLOUDY    25  24  96 NE12      29.96F FOG     WCI  14
SAINT CLOUD    MOCLDY    29  26  89 NE7       29.94F WCI  22
MINNEAPOLIS    CLOUDY    35  30  82 N10       29.90F
$$

  *****  WEATHER ACROSS SOUTH DAKOTA  *****

CITY           SKY/WX    TMP DP  RH WIND       PRES   REMARKS
SIOUX FALLS    LGT SNOW  31  30  96 N17G29    29.82S FOG     WCI  19
BROOKINGS      FLURRIES  27  25  92 NE16      29.86F WCI  15
WATERTOWN      FOG       23  23 100 N20       29.89F VSB 3/4 WCI   8
HURON          CLOUDY    26  24  92 N13       29.92F WCI  15
SISSETON         N/A     24  23  96 N17       29.99F WCI  11
ABERDEEN       CLOUDY    25  23  92 N18       29.99F WCI  11
MITCHELL       LGT SNOW  31  30  96 N20       29.89S FOG     WCI  19
PIERRE         FAIR      25  24  96 N8        29.96F WCI  16
MOBRIDGE       FOG       21  19  92 CALM      29.97F VSB 1/2
RAPID CITY     FAIR      29  20  69 NW21      29.97F WCI  16
$$

  *****  SOME WEATHER IN NEARBY STATES *****

CITY           SKY/WX    TMP DP  RH WIND       PRES   REMARKS
GLASGOW MT     FAIR      12   9  87 SE9       29.98F WCI   0
GREAT FALLS MT FAIR      33  13  43 S22       29.90F WCI  21
CHEYENNE WY    FAIR      17  10  74 NW15      29.92S WCI   2
SCOTTSBLUFF NE MOCLDY    27  20  75 NW23      29.94F WCI  12
OMAHA NE       TSTM      37  35  92 NW8       29.61R
DES MOINES IA  RAIN      39  38  96 NE14      29.57F FOG
DAVENPORT IA   FOG       45  43  93 E10       29.68F VSB 1/4
CHICAGO IL     FOG       45  43  93 SE5       29.78F VSB 1/8
EAU CLAIRE WI  CLOUDY    36  30  79 NE10      29.89F
LA CROSSE WI   LGT RAIN  39  35  86 NE8       29.81F FOG
$$

  *****  SOME NATIONAL WEATHER *****

CITY           SKY/WX    TMP DP  RH WIND       PRES   REMARKS
LA GUARDIA NY  CLOUDY    40  34  79 NE7       30.14F
RALEIGH NC     FAIR      41  39  93 CALM      30.20F
ATLANTA GA     CLOUDY    51  43  74 SE5       30.13F
NEW ORLEANS LA MOCLDY    63  61  93 SE8       30.00F
OKLAHOMA CITY  FAIR      41  26  55 W18G30    29.75R
ALBUQUERQUE NM FAIR      30  10  43 N10       30.10S WCI  21
SALT LAKE CITY FAIR      27  18  69 SE9       30.30R WCI  18
LOS ANGELES CA FAIR      51  35  54 NE3       30.28F
BOISE ID       LGT SNOW  33  31  92 SE10      30.20S FOG     WCI  25
SEATTLE WA     MOCLDY    44  37  76 S12       30.03R
$$

*** WEATHER ACROSS MANITOBA...SASKATCHEWAN AND ONTARIO ***
                ***ONTARIO***

CITY           SKY/WX    TMP DP  RH WIND       PRES   REMARKS
GERALDTON      CLOUDY     1  -4  78 NE13      30.25F WCI -16
THUNDER BAY    CLOUDY    14  10  85 NE5       30.19F WCI   6
SIOUX LOOKOUT  FLURRIES   9   5  85 E6        30.16S WCI  -1
TORONTO        DRZL/FOG  36  34  93 NE3       30.06R VSB 1
BIG TROUT LK   PTCLDY   -18 -24  76 SE2       30.40R
PICKLE LAKE    NOT AVBL
DRYDEN         CLOUDY    12  10  92 NE8       30.12F WCI   1
KENORA         CLOUDY    14  12  92 NE6       30.11F WCI   5
$$
                *** MANITOBA***

CITY           SKY/WX    TMP DP  RH WIND       PRES   REMARKS
BRANDON        FOG       23  21  93 SE5       30.06F VSB 1/2 WCI  17
DAUPHIN        CLOUDY    16  14  93 E3        30.11F
ISLAND LAKE    FLURRIES  -2  -8  78 E8        30.28S WCI -17
PILOT MOUND      N/A     19  19 100 S5          N/A  WCI  13
THE PAS        PTCLDY    -4  -9  77 E5        30.19S WCI -15
THOMPSON       NOT AVBL
WINNIPEG       CLOUDY    19  14  79 VRB2      30.13F
LYNN LAKE      CLEAR    -22 -26  83 NE3       30.24S
CHURCHILL      PTCLDY   -27 -33  75 SW6       30.54R WCI -44
GILLAM         CLEAR    -20 -26  76 E3        30.43S
$$
                ***SASKATCHEWAN***

CITY           SKY/WX    TMP DP  RH WIND       PRES   REMARKS
ESTEVAN        CLEAR      7   5  92 CALM      29.99F
KINDERSLEY     MOCLDY    19  14  79 SE13      29.79F WCI   7
LLOYDMINSTER   LGT SNOW  21  19  93 SE16G23   29.77F VSB 1   WCI   7
PRINCE ALBERT  FLURRIES  10   9  92 E15       30.04F WCI  -6
REGINA         MOCLDY    10   9  92 SE8       29.96S WCI  -1
YORKTON        CLOUDY    23  23 100 SE10      30.01S FOG     WCI  12
N. BATTLEFORD  CLOUDY    23  21  93 SE22G31   29.87F FOG     WCI   8
LA RONGE       FLURRIES   3   1  92 E12       30.11S WCI -13
SASKATOON      CLOUDY    23  21  93 SE15      29.95S FOG     WCI  10
SWIFT CURRENT  CLEAR     23  16  74 S17G23    29.84F WCI   9
$$
NOTE: THESE ARE AUTOMATED STATIONS WITH LIMITED QUALITY CONTROL
      "FAIR" INDICATES FEW OR NO CLOUDS BELOW 12,000 FEET WITH NO
      SIGNIFICANT WEATHER AND/OR OBSTRUCTIONS TO VISIBILITY.
      SKY/WX - SKY CONDITION AND SIGNIFICANT WEATHER.
      TMP - AIR TEMPERATURE.    DP   - DEWPOINT TEMPERATURE.
      RH  - RELATIVE HUMIDITY.  PRES - PRESSURE.
      HX  - HEAT INDEX.         WCI  - WIND CHILL INDEX.
$



USA.gov is the U.S. government's official web portal to all federal, state and local government web resources and services.